Station Historical Data
Daily Summary for September 11, 2017 Units:  English    Metric   Both
Next Day »
Daily Weekly Monthly Yearly Custom
  High: Low: Average:
Temperature: 88.9 °F 71.9 °F 78.5 °F
Dew Point: 59.6 °F 47.8 °F 54 °F
Humidity: 54% 30% 43%
Wind Speed: 15.0mph 0.0mph 1.9mph
Wind Gust: 23.0mph - -
Wind- - SE
Pressure: 29.92 in 29.84 in -
Precipitation: 0.00 in    
Historical Graphs
 
 
Tabular Data for September 11, 2017
Time Temperature Dew Point Pressure Wind Wind Speed Wind Gust Humidity Rainfall Rate (Hourly) solar Conditions
00:01 73.4 °F 54.7 °F 29.89 in Calm     52% 0.00 in 0.00 W/m2
00:06 73.4 °F 54.7 °F 29.90 in ESE 4.0 mph 4.0 mph 52% 0.00 in 0.00 W/m2
00:11 73.3 °F 54.6 °F 29.89 in ESE 4.0 mph 5.0 mph 52% 0.00 in 0.00 W/m2
00:16 73.1 °F 54.5 °F 29.89 in ESE 5.0 mph 5.0 mph 52% 0.00 in 0.00 W/m2
00:21 72.9 °F 54.3 °F 29.89 in Calm     52% 0.00 in 0.00 W/m2
00:26 72.8 °F 54.2 °F 29.89 in ESE 4.0 mph 5.0 mph 52% 0.00 in 0.00 W/m2
00:31 72.6 °F 54.5 °F 29.89 in ESE 2.0 mph 4.0 mph 53% 0.00 in 0.00 W/m2
00:36 72.4 °F 54.3 °F 29.89 in ESE 2.0 mph 4.0 mph 53% 0.00 in 0.00 W/m2
00:41 72.3 °F 54.2 °F 29.89 in Calm     53% 0.00 in 0.00 W/m2
00:46 72.2 °F 54.1 °F 29.88 in Calm     53% 0.00 in 0.00 W/m2
00:51 72.1 °F 54.0 °F 29.88 in Calm     53% 0.00 in 0.00 W/m2
00:56 72.0 °F 54.0 °F 29.88 in Calm     53% 0.00 in 0.00 W/m2
01:01 72.0 °F 54.0 °F 29.88 in Calm     53% 0.00 in 0.00 W/m2
01:06 71.9 °F 53.9 °F 29.88 in Calm     53% 0.00 in 0.00 W/m2
01:11 71.9 °F 53.9 °F 29.88 in Calm   5.0 mph 53% 0.00 in 0.00 W/m2
01:16 71.9 °F 53.9 °F 29.87 in Calm   2.0 mph 53% 0.00 in 0.00 W/m2
01:21 71.9 °F 53.9 °F 29.88 in Calm   4.0 mph 53% 0.00 in 0.00 W/m2
01:23 71.9 °F 53.9 °F 29.88 in Calm   6.0 mph 53% 0.00 in 0.00 W/m2
01:28 71.9 °F 54.4 °F 29.88 in Calm   4.0 mph 54% 0.00 in 0.00 W/m2
01:33 72.0 °F 54.0 °F 29.88 in Calm   2.0 mph 53% 0.00 in 0.00 W/m2
01:38 72.0 °F 53.4 °F 29.88 in Calm   6.0 mph 52% 0.00 in 0.00 W/m2
01:43 72.0 °F 53.4 °F 29.88 in East 5.0 mph 7.0 mph 52% 0.00 in 0.00 W/m2
01:48 72.1 °F 53.0 °F 29.88 in East 5.0 mph 9.0 mph 51% 0.00 in 0.00 W/m2
01:53 72.1 °F 52.5 °F 29.88 in East 4.0 mph 7.0 mph 50% 0.00 in 0.00 W/m2
01:59 72.2 °F 52.0 °F 29.88 in Calm   9.0 mph 49% 0.00 in 0.00 W/m2
02:04 72.2 °F 51.4 °F 29.88 in East 9.0 mph 12.0 mph 48% 0.00 in 0.00 W/m2
02:09 72.3 °F 51.0 °F 29.88 in East 1.0 mph 8.0 mph 47% 0.00 in 0.00 W/m2
02:14 72.4 °F 51.0 °F 29.88 in East 5.0 mph 9.0 mph 47% 0.00 in 0.00 W/m2
02:19 72.4 °F 51.0 °F 29.88 in Calm   9.0 mph 47% 0.00 in 0.00 W/m2
02:24 72.5 °F 50.6 °F 29.88 in Calm   9.0 mph 46% 0.00 in 0.00 W/m2
02:29 72.6 °F 50.7 °F 29.87 in ESE 8.0 mph 9.0 mph 46% 0.00 in 0.00 W/m2
02:34 72.6 °F 50.1 °F 29.88 in ESE 2.0 mph 8.0 mph 45% 0.00 in 0.00 W/m2
02:39 72.7 °F 50.2 °F 29.88 in ESE 7.0 mph 9.0 mph 45% 0.00 in 0.00 W/m2
02:44 72.8 °F 50.2 °F 29.88 in ESE 8.0 mph 12.0 mph 45% 0.00 in 0.00 W/m2
02:49 72.9 °F 49.7 °F 29.88 in East 8.0 mph 12.0 mph 44% 0.00 in 0.00 W/m2
02:54 73.0 °F 49.8 °F 29.87 in East 2.0 mph 12.0 mph 44% 0.00 in 0.00 W/m2
02:59 73.0 °F 49.2 °F 29.87 in East 9.0 mph 9.0 mph 43% 0.00 in 0.00 W/m2
03:04 73.2 °F 49.4 °F 29.87 in East 8.0 mph 11.0 mph 43% 0.00 in 0.00 W/m2
03:09 73.5 °F 49.0 °F 29.87 in ENE 7.0 mph 12.0 mph 42% 0.00 in 0.00 W/m2
03:14 73.7 °F 49.2 °F 29.87 in ENE 2.0 mph 8.0 mph 42% 0.00 in 0.00 W/m2
03:19 73.8 °F 49.3 °F 29.87 in East 2.0 mph 8.0 mph 42% 0.00 in 0.00 W/m2
03:24 73.9 °F 48.7 °F 29.87 in East 10.0 mph 13.0 mph 41% 0.00 in 0.00 W/m2
03:29 74.0 °F 48.8 °F 29.87 in East 11.0 mph 11.0 mph 41% 0.00 in 0.00 W/m2
03:34 74.0 °F 48.8 °F 29.87 in East 5.0 mph 12.0 mph 41% 0.00 in 0.00 W/m2
03:39 74.2 °F 49.0 °F 29.87 in East 9.0 mph 11.0 mph 41% 0.00 in 0.00 W/m2
03:44 74.3 °F 49.1 °F 29.86 in East 11.0 mph 19.0 mph 41% 0.00 in 0.00 W/m2
03:49 74.3 °F 49.1 °F 29.86 in East 6.0 mph 16.0 mph 41% 0.00 in 0.00 W/m2
03:54 74.4 °F 49.2 °F 29.86 in East 7.0 mph 14.0 mph 41% 0.00 in 0.00 W/m2
03:59 74.4 °F 48.5 °F 29.86 in East 11.0 mph 13.0 mph 40% 0.00 in 0.00 W/m2
04:04 74.4 °F 48.5 °F 29.87 in ESE 8.0 mph 14.0 mph 40% 0.00 in 0.00 W/m2
04:09 74.4 °F 48.5 °F 29.87 in East 12.0 mph 18.0 mph 40% 0.00 in 0.00 W/m2
04:14 74.3 °F 47.8 °F 29.87 in ESE 7.0 mph 20.0 mph 39% 0.00 in 0.00 W/m2
04:19 74.3 °F 48.4 °F 29.87 in ESE 9.0 mph 18.0 mph 40% 0.00 in 0.00 W/m2
04:24 74.4 °F 48.5 °F 29.87 in ESE 11.0 mph 13.0 mph 40% 0.00 in 0.00 W/m2
04:29 74.4 °F 47.9 °F 29.87 in East 1.0 mph 12.0 mph 39% 0.00 in 0.00 W/m2
04:34 74.5 °F 47.9 °F 29.87 in Calm   13.0 mph 39% 0.00 in 0.00 W/m2
04:39 74.7 °F 48.1 °F 29.87 in Calm   12.0 mph 39% 0.00 in 0.00 W/m2
04:44 74.9 °F 48.3 °F 29.87 in Calm   12.0 mph 39% 0.00 in 0.00 W/m2
04:49 75.1 °F 48.5 °F 29.87 in East 6.0 mph 11.0 mph 39% 0.00 in 0.00 W/m2
04:54 75.4 °F 48.8 °F 29.87 in ESE 2.0 mph 12.0 mph 39% 0.00 in 0.00 W/m2
04:59 75.5 °F 48.8 °F 29.86 in ESE 2.0 mph 8.0 mph 39% 0.00 in 0.00 W/m2
05:04 75.6 °F 48.9 °F 29.86 in Calm   11.0 mph 39% 0.00 in 0.00 W/m2
05:09 75.7 °F 49.0 °F 29.86 in East 1.0 mph 9.0 mph 39% 0.00 in 0.00 W/m2
05:14 75.7 °F 49.0 °F 29.86 in Calm   13.0 mph 39% 0.00 in 0.00 W/m2
05:19 75.8 °F 49.1 °F 29.86 in Calm   15.0 mph 39% 0.00 in 0.00 W/m2
05:24 75.8 °F 48.4 °F 29.86 in ESE 4.0 mph 9.0 mph 38% 0.00 in 0.00 W/m2
05:29 75.8 °F 49.1 °F 29.86 in ESE 4.0 mph 8.0 mph 39% 0.00 in 0.00 W/m2
05:34 75.8 °F 49.1 °F 29.86 in East 5.0 mph 7.0 mph 39% 0.00 in 0.00 W/m2
05:39 75.9 °F 49.2 °F 29.86 in Calm   12.0 mph 39% 0.00 in 0.00 W/m2
05:45 75.8 °F 49.1 °F 29.86 in Calm   8.0 mph 39% 0.00 in 0.00 W/m2
05:50 75.8 °F 49.1 °F 29.86 in Calm   9.0 mph 39% 0.00 in 0.00 W/m2
05:55 75.8 °F 49.1 °F 29.86 in Calm   5.0 mph 39% 0.00 in 0.00 W/m2
06:00 75.8 °F 49.1 °F 29.87 in Calm   6.0 mph 39% 0.00 in 0.00 W/m2
06:05 75.7 °F 49.0 °F 29.87 in Calm   5.0 mph 39% 0.00 in 0.00 W/m2
06:10 75.6 °F 48.9 °F 29.87 in Calm   4.0 mph 39% 0.00 in 0.00 W/m2
06:15 75.5 °F 48.8 °F 29.87 in Calm   5.0 mph 39% 0.00 in 0.00 W/m2
06:20 75.3 °F 49.3 °F 29.86 in ESE 1.0 mph 6.0 mph 40% 0.00 in 0.00 W/m2
06:25 75.2 °F 48.6 °F 29.87 in Calm   8.0 mph 39% 0.00 in 0.00 W/m2
06:30 75.0 °F 49.1 °F 29.87 in ESE 1.0 mph 8.0 mph 40% 0.00 in 0.00 W/m2
06:35 74.9 °F 49.0 °F 29.87 in ESE 1.0 mph 6.0 mph 40% 0.00 in 5.00 W/m2
06:40 74.7 °F 49.5 °F 29.87 in ESE 2.0 mph 4.0 mph 41% 0.00 in 5.00 W/m2
06:45 74.5 °F 49.3 °F 29.87 in ESE 1.0 mph 7.0 mph 41% 0.00 in 7.00 W/m2
06:50 74.3 °F 49.8 °F 29.88 in Calm   4.0 mph 42% 0.00 in 12.00 W/m2
06:55 74.1 °F 49.6 °F 29.89 in Calm   6.0 mph 42% 0.00 in 19.00 W/m2
07:00 73.9 °F 50.0 °F 29.89 in Calm   4.0 mph 43% 0.00 in 30.00 W/m2
07:05 73.8 °F 49.9 °F 29.89 in SSE 8.0 mph 9.0 mph 43% 0.00 in 35.00 W/m2
07:10 73.6 °F 49.8 °F 29.89 in Calm   7.0 mph 43% 0.00 in 33.00 W/m2
07:15 73.5 °F 49.7 °F 29.90 in Calm   8.0 mph 43% 0.00 in 42.00 W/m2
07:20 73.4 °F 50.2 °F 29.90 in SSE 1.0 mph 11.0 mph 44% 0.00 in 42.00 W/m2
07:25 73.4 °F 50.2 °F 29.90 in South 1.0 mph 9.0 mph 44% 0.00 in 46.00 W/m2
07:30 73.4 °F 50.8 °F 29.91 in SSE 6.0 mph 11.0 mph 45% 0.00 in 56.00 W/m2
07:35 73.4 °F 50.8 °F 29.90 in Calm   10.0 mph 45% 0.00 in 69.00 W/m2
07:40 73.4 °F 50.8 °F 29.90 in SSE 5.0 mph 9.0 mph 45% 0.00 in 93.00 W/m2
07:45 73.5 °F 51.5 °F 29.90 in SSE 2.0 mph 8.0 mph 46% 0.00 in 128.00 W/m2
07:50 73.5 °F 52.1 °F 29.90 in SSE 2.0 mph 8.0 mph 47% 0.00 in 199.00 W/m2
07:55 73.4 °F 52.0 °F 29.90 in SE 4.0 mph 11.0 mph 47% 0.00 in 185.00 W/m2
08:00 73.5 °F 52.6 °F 29.90 in Calm   12.0 mph 48% 0.00 in 183.00 W/m2
08:05 73.5 °F 53.2 °F 29.90 in Calm   7.0 mph 49% 0.00 in 243.00 W/m2
08:10 73.5 °F 53.2 °F 29.90 in SSE 2.0 mph 11.0 mph 49% 0.00 in 244.00 W/m2
08:15 73.6 °F 53.8 °F 29.89 in SSE 6.0 mph 10.0 mph 50% 0.00 in 255.00 W/m2
08:20 73.7 °F 53.9 °F 29.90 in SSE 8.0 mph 10.0 mph 50% 0.00 in 246.00 W/m2
08:25 73.8 °F 54.6 °F 29.89 in South 2.0 mph 9.0 mph 51% 0.00 in 302.00 W/m2
08:30 73.9 °F 54.7 °F 29.90 in Calm   11.0 mph 51% 0.00 in 279.00 W/m2
08:35 73.9 °F 54.7 °F 29.90 in Calm   11.0 mph 51% 0.00 in 227.00 W/m2
08:40 74.0 °F 54.7 °F 29.90 in SSE 7.0 mph 9.0 mph 51% 0.00 in 357.00 W/m2
08:45 74.1 °F 54.8 °F 29.89 in SSE 5.0 mph 11.0 mph 51% 0.00 in 364.00 W/m2
08:50 74.2 °F 54.4 °F 29.89 in Calm   8.0 mph 50% 0.00 in 392.00 W/m2
08:55 74.4 °F 55.1 °F 29.89 in SSE 5.0 mph 7.0 mph 51% 0.00 in 406.00 W/m2
09:00 74.6 °F 55.3 °F 29.89 in SSE 5.0 mph 9.0 mph 51% 0.00 in 431.00 W/m2
09:05 74.8 °F 55.5 °F 29.89 in South 5.0 mph 8.0 mph 51% 0.00 in 448.00 W/m2
09:07 74.9 °F 55.0 °F 29.89 in South 5.0 mph 8.0 mph 50% 0.00 in 452.00 W/m2
09:12 75.1 °F 55.2 °F 29.89 in Calm   8.0 mph 50% 0.00 in 443.00 W/m2
09:17 75.3 °F 54.8 °F 29.89 in Calm     49% 0.00 in 480.00 W/m2
09:22 75.7 °F 56.3 °F 29.89 in Calm   1.0 mph 51% 0.00 in 496.00 W/m2
09:27 75.9 °F 56.5 °F 29.89 in Calm     51% 0.00 in 512.00 W/m2
09:32 76.0 °F 57.1 °F 29.89 in Calm   5.0 mph 52% 0.00 in 526.00 W/m2
09:37 76.2 °F 57.3 °F 29.89 in Calm     52% 0.00 in 526.00 W/m2
09:42 76.3 °F 57.9 °F 29.89 in South 1.0 mph 6.0 mph 53% 0.00 in 541.00 W/m2
09:47 76.4 °F 57.5 °F 29.89 in South 5.0 mph 6.0 mph 52% 0.00 in 494.00 W/m2
09:52 76.6 °F 57.1 °F 29.89 in South 2.0 mph 6.0 mph 51% 0.00 in 519.00 W/m2
09:57 76.7 °F 57.2 °F 29.89 in Calm   1.0 mph 51% 0.00 in 504.00 W/m2
10:02 76.9 °F 57.4 °F 29.89 in Calm     51% 0.00 in 490.00 W/m2
10:04 77.0 °F 57.0 °F 29.89 in Calm     50% 0.00 in 513.00 W/m2
10:09 77.1 °F 56.5 °F 29.89 in South 1.0 mph 5.0 mph 49% 0.00 in 592.00 W/m2
10:14 77.5 °F 56.3 °F 29.89 in South 2.0 mph 6.0 mph 48% 0.00 in 619.00 W/m2
10:19 77.8 °F 56.0 °F 29.90 in South 3.0 mph 6.0 mph 47% 0.00 in 584.00 W/m2
10:24 78.2 °F 56.9 °F 29.90 in SSW 2.0 mph 6.0 mph 48% 0.00 in 624.00 W/m2
10:29 78.7 °F 56.2 °F 29.90 in Calm   5.0 mph 46% 0.00 in 624.00 W/m2
10:34 79.1 °F 56.6 °F 29.90 in Calm   5.0 mph 46% 0.00 in 661.00 W/m2
10:39 79.6 °F 56.4 °F 29.90 in SSW 3.0 mph 5.0 mph 45% 0.00 in 643.00 W/m2
10:44 79.9 °F 56.1 °F 29.90 in Calm   5.0 mph 44% 0.00 in 621.00 W/m2
10:49 80.2 °F 56.3 °F 29.90 in Calm   6.0 mph 44% 0.00 in 592.00 W/m2
10:54 80.3 °F 56.4 °F 29.90 in Calm   9.0 mph 44% 0.00 in 686.00 W/m2
10:59 80.5 °F 55.3 °F 29.90 in Calm   9.0 mph 42% 0.00 in 624.00 W/m2
11:04 80.8 °F 56.2 °F 29.90 in Calm   3.0 mph 43% 0.00 in 710.00 W/m2
11:09 81.1 °F 56.5 °F 29.90 in WSW 2.0 mph 6.0 mph 43% 0.00 in 643.00 W/m2
11:14 81.2 °F 56.0 °F 29.90 in Calm   7.0 mph 42% 0.00 in 744.00 W/m2
11:19 81.4 °F 56.8 °F 29.90 in Calm   4.0 mph 43% 0.00 in 745.00 W/m2
11:24 81.6 °F 57.0 °F 29.90 in WSW 5.0 mph 5.0 mph 43% 0.00 in 749.00 W/m2
11:29 81.8 °F 55.8 °F 29.90 in Calm   5.0 mph 41% 0.00 in 747.00 W/m2
11:34 82.0 °F 56.0 °F 29.90 in SW 2.0 mph 8.0 mph 41% 0.00 in 758.00 W/m2
11:39 82.3 °F 56.3 °F 29.90 in SSW 3.0 mph 7.0 mph 41% 0.00 in 745.00 W/m2
11:44 82.6 °F 56.5 °F 29.90 in Calm   1.0 mph 41% 0.00 in 756.00 W/m2
11:49 83.2 °F 56.4 °F 29.90 in SW 1.0 mph 4.0 mph 40% 0.00 in 763.00 W/m2
11:54 83.4 °F 56.6 °F 29.90 in SW 2.0 mph 7.0 mph 40% 0.00 in 772.00 W/m2
11:59 83.7 °F 56.1 °F 29.90 in SW 1.0 mph 1.0 mph 39% 0.00 in 770.00 W/m2
12:04 84.1 °F 55.8 °F 29.90 in Calm   2.0 mph 38% 0.00 in 772.00 W/m2
12:09 84.3 °F 56.7 °F 29.90 in Calm   6.0 mph 39% 0.00 in 765.00 W/m2
12:14 84.5 °F 55.4 °F 29.90 in West 4.0 mph 5.0 mph 37% 0.00 in 772.00 W/m2
12:19 84.6 °F 55.5 °F 29.90 in West 2.0 mph 3.0 mph 37% 0.00 in 791.00 W/m2
12:24 84.9 °F 56.5 °F 29.90 in West 1.0 mph 3.0 mph 38% 0.00 in 791.00 W/m2
12:29 85.2 °F 56.8 °F 29.89 in Calm   5.0 mph 38% 0.00 in 793.00 W/m2
12:34 85.6 °F 56.4 °F 29.89 in Calm   6.0 mph 37% 0.00 in 791.00 W/m2
12:39 85.8 °F 56.5 °F 29.89 in Calm     37% 0.00 in 793.00 W/m2
12:44 86.2 °F 56.9 °F 29.89 in WNW 2.0 mph 3.0 mph 37% 0.00 in 793.00 W/m2
12:49 86.4 °F 55.5 °F 29.89 in Calm   7.0 mph 35% 0.00 in 798.00 W/m2
12:54 86.6 °F 54.9 °F 29.89 in Calm   6.0 mph 34% 0.00 in 800.00 W/m2
12:59 86.8 °F 55.1 °F 29.89 in Calm   10.0 mph 34% 0.00 in 800.00 W/m2
13:04 87.1 °F 55.4 °F 29.88 in Calm   3.0 mph 34% 0.00 in 800.00 W/m2
13:09 87.2 °F 55.4 °F 29.88 in WSW 2.0 mph 7.0 mph 34% 0.00 in 800.00 W/m2
13:14 87.3 °F 55.5 °F 29.88 in WSW 4.0 mph 4.0 mph 34% 0.00 in 800.00 W/m2
13:19 87.4 °F 54.0 °F 29.88 in WSW 3.0 mph 4.0 mph 32% 0.00 in 802.00 W/m2
13:24 87.8 °F 54.3 °F 29.89 in Calm   4.0 mph 32% 0.00 in 805.00 W/m2
13:29 88.1 °F 53.7 °F 29.88 in Calm   1.0 mph 31% 0.00 in 817.00 W/m2
13:34 88.6 °F 54.1 °F 29.88 in Calm   5.0 mph 31% 0.00 in 824.00 W/m2
13:39 88.8 °F 54.3 °F 29.88 in Calm     31% 0.00 in 563.00 W/m2
13:45 88.5 °F 54.9 °F 29.88 in Calm     32% 0.00 in 417.00 W/m2
13:50 88.0 °F 54.5 °F 29.88 in Calm   3.0 mph 32% 0.00 in 487.00 W/m2
13:55 87.8 °F 54.3 °F 29.88 in Calm   5.0 mph 32% 0.00 in 515.00 W/m2
14:00 87.6 °F 54.1 °F 29.88 in Calm   3.0 mph 32% 0.00 in 339.00 W/m2
14:05 87.5 °F 54.9 °F 29.88 in Calm   5.0 mph 33% 0.00 in 752.00 W/m2
14:10 87.2 °F 54.6 °F 29.87 in Calm   4.0 mph 33% 0.00 in 691.00 W/m2
14:15 87.0 °F 54.5 °F 29.87 in Calm   5.0 mph 33% 0.00 in 664.00 W/m2
14:20 87.0 °F 55.3 °F 29.87 in Calm   2.0 mph 34% 0.00 in 944.00 W/m2
14:25 87.1 °F 54.5 °F 29.87 in Calm   1.0 mph 33% 0.00 in 448.00 W/m2
14:30 87.4 °F 54.8 °F 29.87 in West 4.0 mph 6.0 mph 33% 0.00 in 689.00 W/m2
14:35 87.7 °F 53.3 °F 29.87 in Calm   1.0 mph 31% 0.00 in 396.00 W/m2
14:40 87.9 °F 52.6 °F 29.86 in Calm     30% 0.00 in 385.00 W/m2
14:45 87.9 °F 53.5 °F 29.86 in Calm   3.0 mph 31% 0.00 in 276.00 W/m2
14:50 87.9 °F 55.2 °F 29.86 in Calm   3.0 mph 33% 0.00 in 383.00 W/m2
14:55 87.9 °F 53.5 °F 29.86 in West 1.0 mph 3.0 mph 31% 0.00 in 828.00 W/m2
15:00 88.0 °F 53.6 °F 29.86 in Calm   6.0 mph 31% 0.00 in 531.00 W/m2
15:05 88.2 °F 55.5 °F 29.86 in West 1.0 mph 3.0 mph 33% 0.00 in 309.00 W/m2
15:10 88.4 °F 54.0 °F 29.86 in WSW 8.0 mph 9.0 mph 31% 0.00 in 309.00 W/m2
15:15 88.6 °F 53.2 °F 29.85 in SW 6.0 mph 7.0 mph 30% 0.00 in 584.00 W/m2
15:20 88.8 °F 53.4 °F 29.85 in Calm   5.0 mph 30% 0.00 in 355.00 W/m2
15:25 88.9 °F 54.4 °F 29.85 in Calm   3.0 mph 31% 0.00 in 568.00 W/m2
15:30 88.8 °F 55.2 °F 29.85 in WSW 1.0 mph 7.0 mph 32% 0.00 in 232.00 W/m2
15:35 88.7 °F 55.1 °F 29.85 in Calm   4.0 mph 32% 0.00 in 218.00 W/m2
15:40 88.5 °F 55.8 °F 29.85 in Calm   2.0 mph 33% 0.00 in 214.00 W/m2
15:45 88.3 °F 55.6 °F 29.85 in Calm   1.0 mph 33% 0.00 in 206.00 W/m2
15:50 87.9 °F 55.2 °F 29.85 in Calm     33% 0.00 in 246.00 W/m2
15:55 87.6 °F 55.8 °F 29.85 in Calm     34% 0.00 in 271.00 W/m2
16:00 87.3 °F 56.3 °F 29.85 in Calm     35% 0.00 in 218.00 W/m2
16:05 87.0 °F 56.1 °F 29.85 in Calm     35% 0.00 in 195.00 W/m2
16:10 86.8 °F 56.7 °F 29.85 in Calm   1.0 mph 36% 0.00 in 202.00 W/m2
16:15 86.6 °F 56.5 °F 29.84 in Calm     36% 0.00 in 204.00 W/m2
16:20 86.5 °F 55.6 °F 29.84 in Calm   1.0 mph 35% 0.00 in 302.00 W/m2
16:25 86.4 °F 56.3 °F 29.84 in Calm     36% 0.00 in 278.00 W/m2
16:30 86.3 °F 57.0 °F 29.84 in Calm     37% 0.00 in 221.00 W/m2
16:35 86.2 °F 56.9 °F 29.84 in Calm     37% 0.00 in 260.00 W/m2
16:40 86.2 °F 57.6 °F 29.84 in Calm     38% 0.00 in 186.00 W/m2
16:45 86.1 °F 57.5 °F 29.84 in Calm   1.0 mph 38% 0.00 in 179.00 W/m2
16:50 86.0 °F 57.5 °F 29.84 in Calm   1.0 mph 38% 0.00 in 169.00 W/m2
16:55 85.8 °F 57.3 °F 29.84 in Calm   1.0 mph 38% 0.00 in 132.00 W/m2
17:00 85.6 °F 57.8 °F 29.84 in Calm     39% 0.00 in 135.00 W/m2
17:05 85.5 °F 57.7 °F 29.84 in Calm     39% 0.00 in 265.00 W/m2
17:10 85.4 °F 58.4 °F 29.84 in Calm   1.0 mph 40% 0.00 in 141.00 W/m2
17:16 85.2 °F 58.2 °F 29.85 in Calm     40% 0.00 in 171.00 W/m2
17:21 84.8 °F 59.2 °F 29.85 in Calm     42% 0.00 in 209.00 W/m2
17:26 84.5 °F 59.6 °F 29.85 in Calm     43% 0.00 in 160.00 W/m2
17:31 84.3 °F 58.1 °F 29.85 in Calm     41% 0.00 in 88.00 W/m2
17:36 84.2 °F 58.0 °F 29.85 in Calm     41% 0.00 in 84.00 W/m2
17:41 84.1 °F 57.2 °F 29.85 in Calm     40% 0.00 in 79.00 W/m2
17:46 83.9 °F 58.4 °F 29.85 in Calm     42% 0.00 in 83.00 W/m2
17:51 83.6 °F 58.8 °F 29.85 in Calm     43% 0.00 in 70.00 W/m2
17:56 83.4 °F 57.9 °F 29.85 in Calm     42% 0.00 in 63.00 W/m2
18:01 83.2 °F 58.4 °F 29.85 in Calm     43% 0.00 in 40.00 W/m2
18:06 83.0 °F 58.2 °F 29.86 in Calm   1.0 mph 43% 0.00 in 30.00 W/m2
18:11 82.9 °F 58.8 °F 29.86 in Calm     44% 0.00 in 37.00 W/m2
18:16 82.8 °F 58.7 °F 29.86 in Calm     44% 0.00 in 14.00 W/m2
18:21 82.7 °F 58.6 °F 29.87 in WSW 1.0 mph 3.0 mph 44% 0.00 in 9.00 W/m2
18:26 82.5 °F 58.4 °F 29.87 in SW 5.0 mph 6.0 mph 44% 0.00 in 7.00 W/m2
18:31 82.4 °F 59.0 °F 29.87 in SSW 4.0 mph 4.0 mph 45% 0.00 in 7.00 W/m2
18:36 82.0 °F 58.6 °F 29.87 in Calm   6.0 mph 45% 0.00 in 7.00 W/m2
18:41 81.6 °F 57.6 °F 29.87 in Calm   1.0 mph 44% 0.00 in 5.00 W/m2
18:46 81.3 °F 58.6 °F 29.87 in Calm   1.0 mph 46% 0.00 in 5.00 W/m2
18:51 81.1 °F 57.8 °F 29.87 in Calm   1.0 mph 45% 0.00 in 5.00 W/m2
18:56 80.7 °F 58.0 °F 29.88 in SSW 6.0 mph 6.0 mph 46% 0.00 in 0.00 W/m2
19:01 80.5 °F 57.8 °F 29.88 in Calm   12.0 mph 46% 0.00 in 0.00 W/m2
19:06 80.3 °F 57.0 °F 29.89 in SE 1.0 mph 9.0 mph 45% 0.00 in 0.00 W/m2
19:11 80.1 °F 56.9 °F 29.89 in Calm   7.0 mph 45% 0.00 in 0.00 W/m2
19:16 79.9 °F 56.7 °F 29.89 in Calm   1.0 mph 45% 0.00 in 0.00 W/m2
19:21 79.8 °F 56.6 °F 29.89 in SE 1.0 mph 5.0 mph 45% 0.00 in 0.00 W/m2
19:26 79.7 °F 56.5 °F 29.90 in Calm   16.0 mph 45% 0.00 in 0.00 W/m2
19:31 79.6 °F 56.4 °F 29.90 in SE 12.0 mph 18.0 mph 45% 0.00 in 0.00 W/m2
19:36 79.6 °F 55.2 °F 29.90 in Calm   16.0 mph 43% 0.00 in 0.00 W/m2
19:41 79.6 °F 55.2 °F 29.90 in ESE 15.0 mph 21.0 mph 43% 0.00 in 0.00 W/m2
19:46 79.6 °F 54.5 °F 29.90 in East 7.0 mph 16.0 mph 42% 0.00 in 0.00 W/m2
19:51 79.6 °F 54.5 °F 29.89 in ESE 8.0 mph 22.0 mph 42% 0.00 in 0.00 W/m2
19:56 79.6 °F 53.8 °F 29.88 in ESE 2.0 mph 2.0 mph 41% 0.00 in 0.00 W/m2
20:01 79.6 °F 55.8 °F 29.88 in East 2.0 mph 23.0 mph 44% 0.00 in 0.00 W/m2
20:06 79.4 °F 58.0 °F 29.88 in Calm   13.0 mph 48% 0.00 in 0.00 W/m2
20:11 79.0 °F 59.3 °F 29.88 in Calm   7.0 mph 51% 0.00 in 0.00 W/m2
20:16 78.3 °F 57.6 °F 29.88 in NE 1.0 mph 3.0 mph 49% 0.00 in 0.00 W/m2
20:19 77.9 °F 57.8 °F 29.87 in NNE 1.0 mph 5.0 mph 50% 0.00 in 0.00 W/m2
20:21 77.6 °F 57.5 °F 29.87 in Calm   4.0 mph 50% 0.00 in 0.00 W/m2
20:22 77.5 °F 57.4 °F 29.87 in Calm   4.0 mph 50% 0.00 in 0.00 W/m2
20:27 77.1 °F 56.5 °F 29.87 in NNE 1.0 mph 2.0 mph 49% 0.00 in 0.00 W/m2
20:32 76.5 °F 54.8 °F 29.86 in NE 2.0 mph 2.0 mph 47% 0.00 in 0.00 W/m2
20:37 76.2 °F 53.9 °F 29.86 in Calm   2.0 mph 46% 0.00 in 0.00 W/m2
20:42 76.1 °F 53.8 °F 29.86 in Calm   1.0 mph 46% 0.00 in 0.00 W/m2
20:47 76.0 °F 54.9 °F 29.86 in Calm   1.0 mph 48% 0.00 in 0.00 W/m2
20:52 76.0 °F 54.3 °F 29.86 in North 1.0 mph 3.0 mph 47% 0.00 in 0.00 W/m2
20:57 75.9 °F 53.7 °F 29.85 in Calm   2.0 mph 46% 0.00 in 0.00 W/m2
21:02 75.9 °F 53.1 °F 29.85 in Calm   4.0 mph 45% 0.00 in 0.00 W/m2
21:07 75.9 °F 53.7 °F 29.85 in Calm   1.0 mph 46% 0.00 in 0.00 W/m2
21:12 75.8 °F 54.2 °F 29.85 in Calm   3.0 mph 47% 0.00 in 0.00 W/m2
21:17 75.8 °F 54.2 °F 29.86 in Calm   6.0 mph 47% 0.00 in 0.00 W/m2
21:22 75.7 °F 54.1 °F 29.86 in Calm   7.0 mph 47% 0.00 in 0.00 W/m2
21:27 75.6 °F 54.5 °F 29.87 in Calm   7.0 mph 48% 0.00 in 0.00 W/m2
21:32 75.5 °F 53.3 °F 29.87 in ESE 1.0 mph 5.0 mph 46% 0.00 in 0.00 W/m2
21:37 75.5 °F 53.9 °F 29.88 in Calm   7.0 mph 47% 0.00 in 0.00 W/m2
21:42 75.4 °F 53.8 °F 29.88 in ENE 1.0 mph 7.0 mph 47% 0.00 in 0.00 W/m2
21:47 75.3 °F 54.3 °F 29.88 in ENE 3.0 mph 5.0 mph 48% 0.00 in 0.00 W/m2
21:52 75.2 °F 54.2 °F 29.88 in NE 1.0 mph 6.0 mph 48% 0.00 in 0.00 W/m2
21:57 75.0 °F 54.0 °F 29.88 in NE 1.0 mph 10.0 mph 48% 0.00 in 0.00 W/m2
22:02 74.9 °F 53.9 °F 29.88 in NE 2.0 mph 8.0 mph 48% 0.00 in 0.00 W/m2
22:07 74.9 °F 53.9 °F 29.88 in Calm   4.0 mph 48% 0.00 in 0.00 W/m2
22:12 74.8 °F 53.8 °F 29.88 in NE 5.0 mph 10.0 mph 48% 0.00 in 0.00 W/m2
22:17 74.8 °F 53.2 °F 29.89 in Calm   3.0 mph 47% 0.00 in 0.00 W/m2
22:22 74.9 °F 53.3 °F 29.90 in Calm     47% 0.00 in 0.00 W/m2
22:27 74.9 °F 53.3 °F 29.91 in Calm   1.0 mph 47% 0.00 in 0.00 W/m2
22:32 74.9 °F 52.2 °F 29.92 in ESE 4.0 mph 6.0 mph 45% 0.00 in 0.00 W/m2
22:37 75.0 °F 53.4 °F 29.92 in Calm   4.0 mph 47% 0.00 in 0.00 W/m2
22:42 75.1 °F 54.1 °F 29.91 in Calm   6.0 mph 48% 0.00 in 0.00 W/m2
22:47 75.1 °F 54.7 °F 29.91 in Calm   8.0 mph 49% 0.00 in 0.00 W/m2
22:52 75.1 °F 55.2 °F 29.91 in ESE 1.0 mph 8.0 mph 50% 0.00 in 0.00 W/m2
22:57 75.1 °F 55.2 °F 29.90 in ESE 4.0 mph 8.0 mph 50% 0.00 in 0.00 W/m2
23:02 75.0 °F 55.1 °F 29.89 in East 2.0 mph 13.0 mph 50% 0.00 in 0.00 W/m2
23:07 75.0 °F 54.0 °F 29.89 in East 11.0 mph 12.0 mph 48% 0.00 in 0.00 W/m2
23:12 75.0 °F 53.4 °F 29.90 in ESE 6.0 mph 8.0 mph 47% 0.00 in 0.00 W/m2
23:17 75.1 °F 52.9 °F 29.90 in ESE 5.0 mph 14.0 mph 46% 0.00 in 0.00 W/m2
23:22 75.2 °F 53.0 °F 29.90 in SE 8.0 mph 14.0 mph 46% 0.00 in 0.00 W/m2
23:27 75.4 °F 53.2 °F 29.90 in Calm   14.0 mph 46% 0.00 in 0.00 W/m2
23:32 75.6 °F 53.4 °F 29.90 in ESE 2.0 mph 11.0 mph 46% 0.00 in 0.00 W/m2
23:37 75.6 °F 54.0 °F 29.90 in SE 2.0 mph 8.0 mph 47% 0.00 in 0.00 W/m2
23:42 75.7 °F 54.1 °F 29.89 in Calm   7.0 mph 47% 0.00 in 0.00 W/m2
23:47 75.6 °F 54.0 °F 29.89 in Calm   1.0 mph 47% 0.00 in 0.00 W/m2
23:52 75.5 °F 53.9 °F 29.90 in SSE 2.0 mph 6.0 mph 47% 0.00 in 0.00 W/m2
23:57 75.4 °F 54.4 °F 29.89 in SE 1.0 mph 7.0 mph 48% 0.00 in 0.00 W/m2
Foresthill Weather
 WU-history PHP script courtesy of   Juneau County Weather.
powered by Cumulus v1.9.3 (1059)
Ambient Weather VWS v14.00
Top Contact Website Map Copyright © 2007 - 2018 Foresthillweather.com Never base important decisions on this or any weather information obtained from the Internet